Find Starlink 32161

NORAD ID: 60593 Int'l Des: 2024-150 Owner: SPXS Country: US Constellation: starlink operational
LEOCIRCULAR

Live Position

Loading 3D Globe...

About Starlink 32161

Description loading...

Upcoming Passes

Passes for default location (London). Set your location on the main map for personalized predictions.

Altitude History

Loading altitude history...

Two-Line Element Set

1 60593U 24150L 26129.99919340 .00000011 00000-0 11460-4 0 9997
2 60593 53.1617 21.8569 0000937 105.6925 254.4181 15.34389612 97357
Epoch: May 9, 2026 • Age: 23 hours

Current Status

Altitude 476.0 km
Velocity 7.63 km/s
Sub-Earth Point -38.81°S, 123.66°E
Launch Date Aug 20, 2024
Age 1.7 years
Type internet

Technical Details

Classification Payload
Mass 730.00 kg
Dry Mass 700.00 kg
Total Mass 730.00 kg
Length 0.30 m
Diameter 4.10 m
Span 29.00 m
Shape Box + pan
Manufacturer SPXS
Bus Type Starlink V2M
Phase Status In Orbit
Owner/State SPXS/US

Most Searched